Regional Weather Roundup
Issued by NWS Sterling, VA

Home | Current Version | Previous Version | Graphics & Text | Print | Product List | Glossary On
Versions: 1 2 3 4 5 6 7 8 9 10 11 12 13 14 15 16 17 18 19 20 21 22 23 24 25 26 27 28 29 30 31 32 33 34 35 36 37 38 39 40 41 42 43 44 45 46 47 48 49 50
000
ASUS41 KLWX 251110
RWRLWX

REGIONAL WEATHER ROUNDUP
NATIONAL WEATHER SERVICE BALTIMORE MD/WASHINGTON DC
600 AM EST SAT FEB 25 2017

Note: "FAIR" indicates few or no clouds below 12,000 feet
with no significant weather and/or obstructions to visibility.
 TC=TEMPERATURE CELSIUS

 * =Non NWS site. Station does not report precipitation (e.g. rain,
    snow, etc.), thunder, or fog.

DCZ001-MDZ009-015-VAZ040>042-051-053>054-251200-
WASHINGTON METRO

CITY           SKY/WX    TMP DP  RH WIND       PRES   REMARKS
WASHINGTON NAT MOCLDY    58  56  93 S10       29.72F
DULLES         MOCLDY    59  56  89 SE15      29.67F
ANDREWS AFB    PTCLDY    59  56  91 S14       29.71F
FT BELVOIR     PTCLDY    55  54  94 SE5       29.70F
QUANTICO       PTCLDY    56  56 100 SW8       29.72F
COLLEGE PARK*  PTCLDY    59  55  88 S5        29.71F
LEESBURG*      MOCLDY    61  59  94 MISG      29.68F
MANASSAS*        N/A     59  56  89 S13       29.69F
GAITHERSBURG*  MOCLDY    59  54  82 SE14      29.73F

$$

MDZ006>007-011-014-251200-
BALTIMORE METRO

CITY           SKY/WX    TMP DP  RH WIND       PRES   REMARKS
BWI AIRPORT    MOCLDY    51  51 100 SE6       29.71F FOG
MD SCIENCE CTR   N/A     56  52  86 MISG      29.72F
MARTIN STATE   PTCLDY    54  54 100 CALM      29.75F
ANNAPOLIS      PTCLDY    54  53  97 S7        29.72F
FORT MEADE*      N/A     48  46  93 CALM      29.73F

$$

MDZ012-015-019>023-251200-
MARYLAND EASTERN SHORE

CITY           SKY/WX    TMP DP  RH WIND       PRES   REMARKS
OCEAN CITY     CLOUDY    48  47  96 CALM      29.79S FOG
SALISBURY      CLOUDY    48  48 100 CALM      29.77F FOG
BAY BRIDGE AP* PTCLDY    57  55  94 S10       29.73F
CAMBRIDGE*       N/A     55  55 100 S6G14     29.76F
EASTON*        CLOUDY    60  56  87 S10       29.78F

$$

MDZ017>025-251200-
SOUTHERN MARYLAND

CITY           SKY/WX    TMP DP  RH WIND       PRES   REMARKS
PATUXENT RIVER PTCLDY    52  52 100 SE5       29.75F
ST INIGOES     PTCLDY    57  55  93 SE6       29.75F
LEONARDTOWN*   PTCLDY    55  54  94 S3        29.76S

$$

MDZ003>005-251200-
NORTH CENTRAL MARYLAND

CITY           SKY/WX    TMP DP  RH WIND       PRES   REMARKS
FREDERICK*     MOCLDY    59  59 100 S8        29.69F
HAGERSTOWN APT PTCLDY    61  57  87 S10       29.63F
WESTMINSTER*   MOCLDY    59  57  94 S10       29.68F

$$

MDZ501>502-251200-
WESTERN MARYLAND

CITY           SKY/WX    TMP DP  RH WIND       PRES   REMARKS
OAKLAND*       MOCLDY    54  45  71 S8        29.62S
CUMBERLAND*    MOCLDY    52  48  87 CALM      29.63F

$$

VAZ025>031-251200-
SHENANDOAH VALLEY

CITY           SKY/WX    TMP DP  RH WIND       PRES   REMARKS
WINCHESTER*    PTCLDY    57  52  82 S7        29.64F
FRONT ROYAL*   CLOUDY    63  52  67 SW8       29.64F
LURAY*         PTCLDY    61  54  77 SW7       29.65F
NEW MARKET*    PTCLDY    59  50  73 SW7       29.64F
STAUNTON*      PTCLDY    59  52  77 S7        29.68F
WAYNESBORO*    CLOUDY    60  52  74 S10G16    29.67F

$$

WVZ021-048>050-054>055-251200-
EASTERN WEST VIRGINIA PANHANDLE

CITY           SKY/WX    TMP DP  RH WIND       PRES   REMARKS
MARTINSBURG    MOCLDY    54  52  93 CALM      29.63F
PETERSBURG*    PTCLDY    63  52  67 CALM      29.62F

$$

VAZ036>039-050-251200-
CENTRAL FOOTHILLS

CITY           SKY/WX    TMP DP  RH WIND       PRES   REMARKS
CHARLOTTESVILL MOCLDY    61  56  83 S9        29.68F
CULPEPER*      CLEAR     56  56  99 SE5       29.70F
ORANGE*        CLEAR     57  55  94 CALM      29.71F
GORDONSVILLE*  CLEAR     58  57  95 SW5       29.70S
WARRENTON*     CLEAR     59  55  85 SE7       29.69F

$$

VAZ055>057-251200-
NORTH AND CENTRAL PIEDMONT

CITY           SKY/WX    TMP DP  RH WIND       PRES   REMARKS
FREDERICKSBRG* CLEAR     58  58 100 S9        29.71F
STAFFORD*      CLEAR     57  57 100 S6        29.75F

$$

NCZ024-NYZ072-PAZ021-071-VAZ022-071-251200-
OTHER REGIONAL OBSERVATIONS

CITY           SKY/WX    TMP DP  RH WIND       PRES   REMARKS
NEW YORK CITY  PTCLDY    53  51  93 S5        29.80F
PHILADELPHIA   MOCLDY    57  55  93 S3        29.77S
PITTSBURGH     LGT RAIN  56  55  97 S8        29.53F
ROANOKE        CLOUDY    60  53  77 SE12      29.69F
RICHMOND       CLEAR     58  57  97 S8        29.74F
RALEIGH        PTCLDY    60  58  92 S7        29.77S

$$

ANZ530>537-251200-
MARINE OBSERVATIONS

STATION/POSITION TIME  TEMP    WIND        PRES
                       AIR SEA DIR/SP/G
                 (UTC) (F)     (DEG/KT/KT) (MB)
THOMAS PT LIGHT  1100   50 45  160/  9/  9   N/A
BALT KEY BRIDGE  1048   55     140/  5/  6 1006.5F
COVE POINT       1048   49     190/ 11/ 12 1007.9F
LEWISETTA        1042   59 51  220/  9/ 11 1007.2F
SOLOMONS ISLAND  1048   53 45   90/  7/  8   N/A
PINEY POINT      1048          130/  7/  7   N/A

$$




USA.gov is the U.S. government's official web portal to all federal, state and local government web resources and services.